DW9029 San Juan de Aznalfarache ES current weather conditions

sailwx.info

Wind from 222 at 5 knots gusting 8

Air temperature 32.2° C
Dewpoint 16.5° C

Last reported at 2018-Sep-19 18:09 UTC.
Time now 2018-Sep-19 18:33 UTC

Location: N 37°22' W 006°02'.
View on Google Maps.

See reports from other nearby stations

  
Tides and Currents Weather Stations Pressure Air Temp Water Temp Dewpoint Dewpoint Depression Visibility Wind Speed Wind Dir Waves Ship Positions
date/time (UTC)wind fromknots sea level pressurealtimeterstation pressurevisibilityair tempwater tempwave heightnotes
2018-Sep-19 18:09 222 5 gusting 8 32.2
2018-Sep-19 18:04 207 4 gusting 7 32.2
2018-Sep-19 17:49 213 0 gusting 5 32.8
2018-Sep-19 17:44 186 2 gusting 6 32.8
2018-Sep-19 17:39 200 2 gusting 6 32.8
2018-Sep-19 17:34 193 1 gusting 8 33.3
2018-Sep-19 17:19 167 2 gusting 6 33.3
2018-Sep-19 17:14 171 33.3
2018-Sep-19 17:09 177 33.3
2018-Sep-19 17:04 189 2 gusting 6 33.9
2018-Sep-19 16:49 138 0 gusting 5 33.9
2018-Sep-19 16:44 161 34.4
2018-Sep-19 16:39 154 35.0
2018-Sep-19 16:34 167 35.0
2018-Sep-19 16:19 093 35.0
2018-Sep-19 16:14 094 35.0
2018-Sep-19 16:09 095 34.4
2018-Sep-19 16:04 092 34.4
2018-Sep-19 15:49 158 34.4
2018-Sep-19 15:44 160 34.4
2018-Sep-19 15:39 160 34.4
2018-Sep-19 15:34 167 2 gusting 4 34.4
2018-Sep-19 15:19 061 34.4
2018-Sep-19 15:14 095 34.4
2018-Sep-19 15:09 184 34.4
2018-Sep-19 15:04 115 33.9
2018-Sep-19 14:49 184 33.9
2018-Sep-19 14:44 179 33.9
2018-Sep-19 14:39 187 1 gusting 5 33.9
2018-Sep-19 14:34 099 33.3
2018-Sep-19 14:19 166 33.3
2018-Sep-19 14:14 143 33.3
2018-Sep-19 14:09 094 33.3
2018-Sep-19 14:04 102 0 gusting 4 32.8
2018-Sep-19 13:49 275 32.8
2018-Sep-19 13:39 222 32.8
2018-Sep-19 13:34 220 0 gusting 6 32.8
2018-Sep-19 13:19 186 0 gusting 5 32.8
2018-Sep-19 13:14 217 32.8
2018-Sep-19 13:09 269 32.2
2018-Sep-19 13:04 270 32.2
2018-Sep-19 12:49 192 4 gusting 6 31.7
2018-Sep-19 12:44 226 31.7
2018-Sep-19 12:39 187 0 gusting 2 31.7
2018-Sep-19 12:34 180 0 gusting 5 31.7
2018-Sep-19 12:19 246 3 gusting 6 31.1
2018-Sep-19 12:14 208 0 gusting 4 31.1
2018-Sep-19 12:09 160 31.1
2018-Sep-19 12:04 205 0 gusting 4 30.6
2018-Sep-19 11:49 356 0 gusting 2 30.6
2018-Sep-19 11:44 068 30.6
2018-Sep-19 11:39 181 30.6
2018-Sep-19 11:34 170 30.6
2018-Sep-19 11:19 213 30.0
2018-Sep-19 11:14 149 30.0
2018-Sep-19 11:09 144 30.0
2018-Sep-19 11:04 150 30.0
2018-Sep-19 10:49 129 30.0
2018-Sep-19 10:44 128 29.4
2018-Sep-19 10:39 128 29.4
2018-Sep-19 10:34 073 29.4
2018-Sep-19 10:19 007 28.3
2018-Sep-19 10:14 016 28.3
2018-Sep-19 10:09 082 28.3
2018-Sep-19 10:04 338 27.8
2018-Sep-19 09:49 011 27.2
2018-Sep-19 09:44 134 26.7
2018-Sep-19 09:39 007 26.7
2018-Sep-19 09:34 037 26.7
2018-Sep-19 09:19 043 25.6
2018-Sep-19 09:14 042 25.6
2018-Sep-19 09:09 043 25.6
2018-Sep-19 09:04 040 25.0
2018-Sep-19 08:49 015 24.4
2018-Sep-19 08:44 010 24.4
2018-Sep-19 08:39 006 24.4
2018-Sep-19 08:34 021 24.4
2018-Sep-19 08:19 012 23.9
2018-Sep-19 08:14 004 23.3
2018-Sep-19 08:09 011 23.3
2018-Sep-19 08:04 350 23.3
2018-Sep-19 07:49 352 22.8
2018-Sep-19 07:44 007 22.8
2018-Sep-19 07:39 355 22.8
2018-Sep-19 07:34 012 22.8
2018-Sep-19 07:19 010 0 gusting 4 22.2
2018-Sep-19 07:14 354 1 gusting 4 22.2
2018-Sep-19 07:09 357 22.2
2018-Sep-19 07:04 339 0 gusting 4 22.2
2018-Sep-19 06:49 007 22.2
2018-Sep-19 06:44 348 22.2
2018-Sep-19 06:39 011 21.7
2018-Sep-19 06:34 340 21.7
2018-Sep-19 06:19 340 21.7
2018-Sep-19 06:14 340 22.2
2018-Sep-19 06:09 340 22.2
2018-Sep-19 06:04 340 22.2
2018-Sep-19 05:49 294 22.8
2018-Sep-19 05:44 294 22.8
2018-Sep-19 05:39 294 22.8
2018-Sep-19 05:34 229 22.8
2018-Sep-19 05:19 229 22.8
2018-Sep-19 05:14 228 22.8
2018-Sep-19 05:09 228 22.8
2018-Sep-19 05:04 228 22.8
2018-Sep-19 04:49 227 22.8
2018-Sep-19 04:44 227 22.8
2018-Sep-19 04:39 228 22.8
2018-Sep-19 04:34 227 22.8
2018-Sep-19 04:19 227 22.8
2018-Sep-19 04:14 228 22.8
2018-Sep-19 04:09 228 22.8
2018-Sep-19 04:04 227 22.8
2018-Sep-19 03:49 227 22.8
2018-Sep-19 03:44 228 22.8
2018-Sep-19 03:39 227 22.8
2018-Sep-19 03:34 228 22.8
2018-Sep-19 03:19 227 22.8
2018-Sep-19 03:14 227 22.8
2018-Sep-19 03:09 228 22.8
2018-Sep-19 03:04 227 22.8
2018-Sep-19 02:49 227 22.8
2018-Sep-19 02:44 227 22.8
2018-Sep-19 02:39 227 22.8
2018-Sep-19 02:34 228 22.8
2018-Sep-19 02:19 228 22.8
2018-Sep-19 02:14 281 22.8
2018-Sep-19 02:09 281 22.8
2018-Sep-19 02:04 281 22.8
2018-Sep-19 01:49 283 23.3
2018-Sep-19 01:44 284 23.3
2018-Sep-19 01:39 284 22.8
2018-Sep-19 01:34 284 22.8
2018-Sep-19 01:19 261 22.8
2018-Sep-19 01:14 229 23.3
2018-Sep-19 01:09 229 23.3
2018-Sep-19 01:04 229 23.3
2018-Sep-19 00:49 229 23.3
2018-Sep-19 00:44 227 23.3
2018-Sep-19 00:39 224 23.3
2018-Sep-19 00:34 179 22.8
2018-Sep-19 00:19 155 22.8
2018-Sep-19 00:14 155 22.8
2018-Sep-19 00:09 155 23.3
2018-Sep-19 00:04 173 23.3
2018-Sep-18 23:49 198 23.3
2018-Sep-18 23:44 179 23.3
2018-Sep-18 23:39 186 23.3
2018-Sep-18 23:34 158 23.3
2018-Sep-18 23:19 170 23.3
2018-Sep-18 23:14 170 23.3
2018-Sep-18 23:09 170 23.3
2018-Sep-18 23:04 178 23.9
2018-Sep-18 22:49 234 23.9
2018-Sep-18 22:44 200 0 gusting 5 23.9
2018-Sep-18 22:39 209 23.9
2018-Sep-18 22:34 196 23.9
2018-Sep-18 22:19 220 2 gusting 7 23.9
2018-Sep-18 22:14 196 1 gusting 6 23.9
2018-Sep-18 22:09 196 0 gusting 4 23.9
2018-Sep-18 22:04 182 23.9
2018-Sep-18 21:49 206 23.9
2018-Sep-18 21:44 191 23.9
2018-Sep-18 21:39 157 23.9
2018-Sep-18 21:34 174 24.4
2018-Sep-18 21:19 156 24.4
2018-Sep-18 21:14 171 24.4
2018-Sep-18 21:09 178 24.4
2018-Sep-18 21:04 165 25.0
2018-Sep-18 20:49 175 0 gusting 4 26.1
2018-Sep-18 20:44 171 0 gusting 4 26.7
2018-Sep-18 20:39 135 27.2
2018-Sep-18 20:34 224 27.8
2018-Sep-18 20:19 228 27.8
2018-Sep-18 20:14 214 27.8
2018-Sep-18 20:09 236 27.8
2018-Sep-18 20:04 195 27.8
2018-Sep-18 19:49 261 28.3
2018-Sep-18 19:44 265 28.3
2018-Sep-18 19:39 285 28.3
2018-Sep-18 19:34 264 28.3
2018-Sep-18 19:19 259 0 gusting 5 28.9
2018-Sep-18 19:14 260 2 gusting 10 28.9
2018-Sep-18 19:09 246 2 gusting 8 28.9
2018-Sep-18 19:04 256 2 gusting 8 28.9
2018-Sep-18 18:49 245 1 gusting 11 29.4
2018-Sep-18 18:44 248 2 gusting 7 30.0
2018-Sep-18 18:39 243 1 gusting 8 30.0
2018-Sep-18 18:34 241 30.0
2018-Sep-18 18:19 236 0 gusting 7 30.6
2018-Sep-18 18:14 230 1 gusting 6 30.6
2018-Sep-18 18:09 231 2 gusting 10 30.6
2018-Sep-18 18:04 230 4 gusting 10 30.6
2018-Sep-18 17:49 218 2 gusting 8 31.1
2018-Sep-18 17:44 240 3 gusting 11 31.1
2018-Sep-18 17:39 207 2 gusting 10 31.1
2018-Sep-18 17:19 213 4 gusting 10 31.7
2018-Sep-18 17:14 224 4 gusting 10 31.7
2018-Sep-18 17:09 171 4 gusting 10 31.7
2018-Sep-18 17:04 202 4 gusting 10 31.7
2018-Sep-18 16:49 211 4 gusting 8 32.2
2018-Sep-18 16:44 222 2 gusting 8 32.2
2018-Sep-18 16:39 244 4 gusting 7 32.2
2018-Sep-18 16:34 209 5 gusting 13 32.2
2018-Sep-18 16:19 215 3 gusting 10 32.2
2018-Sep-18 16:14 224 4 gusting 10 32.8
2018-Sep-18 16:09 203 4 gusting 11 32.2
2018-Sep-18 16:04 208 4 gusting 11 32.8
2018-Sep-18 15:49 186 5 gusting 11 32.2
2018-Sep-18 15:44 195 3 gusting 8 32.2
2018-Sep-18 15:39 202 5 gusting 8 32.2
2018-Sep-18 15:34 196 6 gusting 11 32.2
2018-Sep-18 15:19 218 1 gusting 7 32.8
2018-Sep-18 15:14 173 4 gusting 8 32.2
2018-Sep-18 15:09 223 3 gusting 7 32.2
2018-Sep-18 15:04 162 3 gusting 10 32.2
2018-Sep-18 14:49 147 2 gusting 7 32.2
2018-Sep-18 14:44 175 32.2
2018-Sep-18 14:39 203 1 gusting 8 32.2
2018-Sep-18 14:34 212 0 gusting 10 32.2
2018-Sep-18 14:19 215 2 gusting 6 32.2
2018-Sep-18 14:14 207 4 gusting 6 31.7
2018-Sep-18 14:09 172 4 gusting 8 31.7
2018-Sep-18 14:04 160 31.7
2018-Sep-18 13:49 109 6 gusting 10 31.1
2018-Sep-18 13:44 140 2 gusting 8 31.1
2018-Sep-18 13:39 135 2 gusting 7 31.1
2018-Sep-18 13:34 139 1 gusting 8 31.1
2018-Sep-18 13:19 082 1 gusting 6 31.1
2018-Sep-18 13:14 178 4 gusting 7 31.1
2018-Sep-18 13:09 117 1 gusting 6 31.1
2018-Sep-18 13:04 152 1 gusting 6 31.1
2018-Sep-18 12:49 170 30.6
2018-Sep-18 12:44 208 0 gusting 4 30.6
2018-Sep-18 12:39 085 30.6
2018-Sep-18 12:34 063 30.6
2018-Sep-18 12:19 205 3 gusting 6 30.0
2018-Sep-18 12:14 208 30.0
2018-Sep-18 12:09 167 1 gusting 6 29.4
2018-Sep-18 12:04 133 1 gusting 6 30.0
2018-Sep-18 11:49 099 29.4
2018-Sep-18 11:44 143 0 gusting 4 28.9
2018-Sep-18 11:39 120 28.9
2018-Sep-18 11:34 142 0 gusting 6 28.9
2018-Sep-18 11:19 130 1 gusting 6 28.9
2018-Sep-18 11:14 142 0 gusting 2 28.9
2018-Sep-18 11:09 119 0 gusting 2 28.3
2018-Sep-18 11:04 128 28.3
2018-Sep-18 10:49 138 27.8
2018-Sep-18 10:44 219 27.8
2018-Sep-18 10:39 180 27.8
2018-Sep-18 10:34 137 27.2
2018-Sep-18 10:19 161 1 gusting 6 26.7
2018-Sep-18 10:14 159 1 gusting 4 27.2
2018-Sep-18 10:09 143 27.2
2018-Sep-18 10:04 156 27.2
2018-Sep-18 09:49 150 26.1
2018-Sep-18 09:44 184 26.1
2018-Sep-18 09:39 227 26.1
2018-Sep-18 09:34 204 26.1
2018-Sep-18 09:19 097 0 gusting 4 26.1
2018-Sep-18 09:14 152 26.1
2018-Sep-18 09:09 125 25.6
2018-Sep-18 09:04 125 25.0
2018-Sep-18 08:49 055 24.4
2018-Sep-18 08:44 056 25.0
2018-Sep-18 08:39 089 24.4
2018-Sep-18 08:34 061 24.4
2018-Sep-18 08:19 007 23.9
2018-Sep-18 08:14 341 23.3
2018-Sep-18 08:09 353 23.3
2018-Sep-18 08:04 027 23.3
2018-Sep-18 07:49 004 22.8
2018-Sep-18 07:44 001 2 gusting 5 22.8
2018-Sep-18 07:39 020 1 gusting 5 22.8
2018-Sep-18 07:34 031 22.8
2018-Sep-18 07:19 018 1 gusting 4 22.8
2018-Sep-18 07:14 011 0 gusting 5 22.2
2018-Sep-18 07:09 355 2 gusting 6 22.2
2018-Sep-18 07:04 001 2 gusting 6 22.2
2018-Sep-18 06:49 22.2
2018-Sep-18 06:44 001 2 gusting 5 22.2
2018-Sep-18 06:39 013 22.2
2018-Sep-18 06:34 004 22.2
2018-Sep-18 06:19 028 22.2
2018-Sep-18 06:14 001 22.2
2018-Sep-18 06:09 013 0 gusting 2 22.2
2018-Sep-18 06:04 019 22.2
2018-Sep-18 05:49 001 22.2
2018-Sep-18 05:44 342 22.2
2018-Sep-18 05:39 342 22.2
2018-Sep-18 05:34 032 22.2
2018-Sep-18 05:19 351 22.8
2018-Sep-18 05:14 349 22.8
2018-Sep-18 05:09 346 22.8
2018-Sep-18 05:04 355 22.8
2018-Sep-18 04:49 335 22.8
2018-Sep-18 04:44 310 22.8
2018-Sep-18 04:39 292 22.8
2018-Sep-18 04:34 292 22.8
2018-Sep-18 04:19 292 22.8
2018-Sep-18 04:14 292 22.8
2018-Sep-18 04:09 292 22.8
2018-Sep-18 04:04 292 22.8
2018-Sep-18 03:49 292 23.3
2018-Sep-18 03:44 292 22.8
2018-Sep-18 03:39 292 22.8
2018-Sep-18 03:34 291 22.8
2018-Sep-18 03:19 291 23.3
2018-Sep-18 03:14 291 22.8
2018-Sep-18 03:09 291 22.8
2018-Sep-18 03:04 291 22.8
2018-Sep-18 02:49 291 22.8
2018-Sep-18 02:44 291 23.3
2018-Sep-18 02:39 291 23.3
2018-Sep-18 02:34 291 23.3
2018-Sep-18 02:19 291 23.3
2018-Sep-18 02:09 292 23.3
2018-Sep-18 02:04 292 23.9
2018-Sep-18 01:49 293 23.9
2018-Sep-18 01:44 307 23.9
2018-Sep-18 01:39 309 23.9
2018-Sep-18 01:34 278 23.9
2018-Sep-18 01:19 269 23.9
2018-Sep-18 01:14 269 23.9
2018-Sep-18 01:09 269 24.4
2018-Sep-18 01:04 269 24.4
2018-Sep-18 00:49 269 24.4
2018-Sep-18 00:44 269 23.9
2018-Sep-18 00:39 269 23.9
2018-Sep-18 00:34 269 23.9
2018-Sep-18 00:19 269 24.4
2018-Sep-18 00:14 269 24.4
2018-Sep-18 00:09 269 24.4
2018-Sep-18 00:04 269 24.4
2018-Sep-17 23:49 269 25.0
2018-Sep-17 23:44 269 25.0
2018-Sep-17 23:39 269 25.0
2018-Sep-17 23:34 269 25.0
2018-Sep-17 23:19 269 25.6
2018-Sep-17 23:14 269 25.6
2018-Sep-17 23:09 269 25.6
2018-Sep-17 23:04 269 25.6
2018-Sep-17 22:49 269 26.7
2018-Sep-17 22:44 269 26.7
2018-Sep-17 22:39 269 26.7
2018-Sep-17 22:34 269 26.7
2018-Sep-17 22:19 269 26.7
2018-Sep-17 22:14 269 26.7
2018-Sep-17 22:09 269 26.7
2018-Sep-17 22:04 269 26.7
2018-Sep-17 21:49 269 27.2
2018-Sep-17 21:44 269 26.7
2018-Sep-17 21:39 269 27.2
2018-Sep-17 21:34 269 26.7
2018-Sep-17 21:19 269 26.7
2018-Sep-17 21:14 269 26.7
2018-Sep-17 21:09 269 26.7
2018-Sep-17 21:04 269 27.2
2018-Sep-17 20:49 282 27.2
2018-Sep-17 20:44 279 27.2
2018-Sep-17 20:39 277 0 gusting 5 27.2
2018-Sep-17 20:34 276 27.2
2018-Sep-17 20:19 250 27.2
2018-Sep-17 20:14 243 27.2
2018-Sep-17 20:09 243 27.8
2018-Sep-17 20:04 254 27.8
2018-Sep-17 19:49 304 27.8
2018-Sep-17 19:44 304 27.8
2018-Sep-17 19:39 304 27.8
2018-Sep-17 19:34 318 27.8
2018-Sep-17 19:19 316 28.3
2018-Sep-17 19:14 305 0 gusting 6 28.3
2018-Sep-17 19:09 314 0 gusting 4 28.9
2018-Sep-17 19:04 265 2 gusting 7 28.9
2018-Sep-17 18:49 315 1 gusting 14 29.4
2018-Sep-17 18:44 243 2 gusting 12 29.4
2018-Sep-17 18:39 242 4 gusting 8 29.4
2018-Sep-17 18:34 219 2 gusting 6 29.4
2018-Sep-17 18:19 193 29.4
2018-Sep-17 18:11 216 2 gusting 5 30.0
2018-Sep-17 18:04 206 30.0